FENGYUN 1C DEB, 30366

Orbit data source: Space-Track

FENGYUN 1C DEB, 30366 is space debris in SSO originally from a launch on Mon, 10 May 1999 UTC launched from the Taiyaun Space Center, China (TSC). Fengyun 1C debris stems from the Chinese weather satellite Fengyun-1C, which was intentionally destroyed by a Chinese anti-satellite missile in 2007. This event dramatically increased the amount of space debris, with thousands of trackable fragments posing hazards to satellites and human spaceflight. The Fengyun 1C debris cloud has become a focal point in discussions about space sustainability and the need for international regulations to prevent the creation of new debris.

Loading next visibility...
Identifier
30366, 1999-025ACD
Orbit
SSO
Country
Flag of CNCN / PRC
Related business
Manufacturer
Unknown
Mission
Spacecraft
Bus & Motor
Unknown
Mass
Unknown
Launch date (UTC)
1999-05-10 (27 years ago)
Launch vehicle
Unknown
Launch site
Taiyaun Space Center, China (TSC)
Object type
Payload
Rocket body
Debris
Shape & HBR
Unknown shape, 0.1 m
Radar Cross Section
Small (<0.1 m²)

Expand to show TLE details & history
Last TLE update: 9 hours ago

TLE from 9 hours ago
0 FENGYUN 1C DEB
1 30366U 99025ACD 26146.25957874  .00001128  00000-0  41147-3 0  9991
2 30366  98.9284  73.9187 0063779  97.4828  56.3614 14.33972153  6813
Epoch: 2026-05-26T06:13Z
TLE epoch observation values (Epoch: 2026-05-26T06:13:47.603Z)
Latitude
25.24445°
Longitude
-79.13982°
Altitude
756.461 km
Speed
7.492 km/s
True Right ascension
17h 12m 34s
True Declination
25° 06' 43"
Sunlit
Object was in full shadow at epoch
Visualization orbit readout
Latitude
Unknown
Longitude
Unknown
Altitude
Unknown
Speed
Unknown
Apparent Right ascension
Unknown
Apparent Declination
Unknown
Sunlit
N/A
Visualization observer readout
Local Sidereal Time
00:12:39
Azimuth
Unknown
Elevation
Unknown
Doppler factor
Unknown
Orbital elements
Apogee altitude
821.261 km
Perigee altitude
730.009 km
Semi-major axis
7,153.772 km
Eccentricity
0.00638
Inclination
98.9284°
RAAN
73.9187°
Arg. of periapsis
97.4828°
True anomaly
56.97256°
Mean anomaly
56.3614°
Eccentric anomaly
56.66671°
Mean motion
3.58708 °/min
Orbital period
100.36 mins
BSTAR
0.00041147
Loading maneuver chart data...
Computing Atmospheric mass density...

Documentation

Showing up to 5 results
|